Weather in Rintala

Russia / Republic of Karelia     61°17′20″N   29°22′24″E
temp.,
°C
wind,
m/s
gust,
m/s
humid.,
%
clouds,
%
prec.,
mm/h
press.,
hPa
HPBL,
m
6 august, fri
fri600:00+10ne128312 0.0 101712
03:00+10nne23843 0.0 101748
06:00+11nne277599 0.0 1017183
09:00+17ene46555 0.0 1017662
12:00+20e47395 0.0 10172048
15:00+21e573767 0.0 10162500
18:00+19e38495 0.0 10161479
21:00+14ne26715 0.0 1016133
7 august, sat
sat700:00+12ne311781 0.0 1015366
03:00+13ene4137612 0.0 1015719
06:00+12ene4128499 0.0 1014646
09:00+13ene51184100 0.0 1013833
12:00+17ene51171100 0.0 1012994
15:00+16e51390100 0.4 10111009
18:00+15e61496100 2.8 1010942
21:00+15e71497100 11.6 1008988
8 august, sun
sun800:00+15e61298100 7.8 10081016
03:00+15e4999100 8.5 1008529
06:00+16e3799100 0.1 1008425
09:00+16e3699100 0.1 1009445
12:00+16e2599100 0.4 1010276
15:00+20sse247436 0.5 1011988
18:00+21ese4562100 0.1 1012836
21:00+16ese248896 0.1 101397
9 august, mon
mon900:00+14e2296100 0.0 101434
03:00+14ese2398100 0.0 101465
06:00+14e2697100 0.0 1013156
09:00+19ese367684 0.0 1013427
12:00+21ese366999 0.1 1013802
15:00+18ese2784100 0.1 1013404
18:00+19s2484100 0.1 1013410
21:00+17sse259832 0.3 1013167
10 august, tue
tue1000:00+16ssw399987 0.0 1014416
03:00+15sw289950 0.1 1015319
06:00+14s269935 0.0 1015160
09:00+19ssw367824 0.0 1016780
12:00+22ssw465578 0.1 10161663
15:00+23ssw4550100 0.2 10161707
18:00+21ssw4559100 0.0 10171172
21:00+17s2481100 0.0 101796